Flag for U.S.A. Weather past 2 weeks in Grand Junction, Colorado, U.S.A.

Now
56 °F

Broken clouds.


Feels Like: 52 °F
Forecast: 51 / 67 °F
Wind: 14 mph from Southeast

Location: Walker Field

Current Time: Oct 21, 2014 at 9:52:10 AM

Latest Report: Oct 21, 2014 at 8:53 AM


Visibility: 10 mi

Pressure: 29.95 "Hg

Humidity: 51%

Dew point: 38 °F

Location of Grand JunctionLocation

Historic Weather in Grand Junction — Graph

°F

Grand Junction temperature yesterday

Maximum temperature yesterday: 71 °F (at 1:53 PM)
Minimum temperature yesterday: 43 °F (at 6:53 AM)
Average temperature yesterday: 58 °F

Past Weeks' High & Low Weather Summary

 TemperatureHumidityPressure
High75 °F (Oct 19, 3:53 PM)97% (Oct 10, 12:53 AM)30.29 "Hg (Oct 10, 12:53 AM)
Low33 °F (Oct 13, 6:53 AM)23% (Oct 11, 5:53 PM)26.58 "Hg (Oct 16, 11:20 PM)
Average55 °F54%29.98 "Hg
* Reported Oct 6 7:53 AM — Oct 21 7:53 AM, Grand Junction, Weather by CustomWeather, © 2014

Note: Actual official high and low records may vary slightly from our data, if they occured in-between our weather recording intervals... More about our weather records

Advertising

Grand Junction weather history for previous 24 hours

 ConditionsComfort  
Time TempWeatherWind HumidityBarometerVisibility
7:53 AM
Oct 21
56 °FPassing clouds.13 mph49%29.93 "Hg10 mi
6:53 AM56 °FOvercast.15 mph49%29.91 "Hg10 mi
5:53 AM56 °FPassing clouds.15 mph49%29.89 "Hg10 mi
4:53 AM57 °FOvercast.14 mph49%29.88 "Hg10 mi
3:53 AM56 °FPassing clouds.14 mph49%29.88 "Hg10 mi
2:53 AM55 °FClear.12 mph51%29.90 "Hg10 mi
1:53 AM57 °FPassing clouds.12 mph49%29.89 "Hg10 mi
12:53 AM59 °FMostly cloudy.8 mph48%29.89 "Hg10 mi
11:53 PM
Oct 20
58 °FOvercast.7 mph50%29.90 "Hg10 mi
10:53 PM56 °FPassing clouds.9 mph49%29.92 "Hg10 mi
9:53 PM56 °FClear.6 mph49%29.92 "Hg10 mi
8:53 PM56 °FPassing clouds.6 mph49%29.93 "Hg10 mi
7:53 PM55 °FClear.3 mph47%29.96 "Hg10 mi
6:53 PM59 °FSunny.No wind42%29.95 "Hg10 mi
5:53 PM69 °FSunny.7 mph33%29.91 "Hg10 mi
4:53 PM71 °FSunny.9 mph32%29.91 "Hg10 mi
3:53 PM71 °FSunny.7 mph34%29.94 "Hg10 mi
2:53 PM71 °FSunny.7 mph35%29.94 "Hg10 mi
1:53 PM71 °FSunny.3 mph38%29.96 "Hg10 mi
12:53 PM69 °FPassing clouds.No wind41%30.00 "Hg10 mi
11:53 AM66 °FSunny.5 mph45%30.03 "Hg10 mi
10:53 AM64 °FSunny.10 mph47%30.05 "Hg10 mi
9:53 AM61 °FSunny.15 mph52%30.06 "Hg10 mi
Weather by CustomWeather, © 2014

See weather overviewHow to use our weather pages